Showing default

SDS-4, 38339

Orbit data source: Space-Track

SDS-4, 38339 is a payload satellite owned by JAXA (JP) in SSO that was launched on Thu, 17 May 2012 UTC via an H-IIA 202 launch vehicle from the Tanegashima Space Center (TNSTA). Payload-class satellites include a variety of spacecraft equipped with specific instruments for various scientific and technological missions. These include communications satellites like Starlink; space stations such as the ISS; scientific satellites like the Hubble; Earth observation satellites from companies like Planet Labs, Umbra, and HawkEye 360; GPS; miniature CubeSats for education and research; and military/defense satellites.

Loading next visibility...
Identifier
38339, 2012-025C
Orbit
SSO
Country
Flag of JPJP / JPN
Related business
Manufacturer
JAXA
Mission
Operational Civil Technology
Bus & Motor
SDS-1, Unknown motor
Mass
50 kg wet, 50 kg dry
Launch date (UTC)
2012-05-17 (14 years ago)
Launch vehicle
H-IIA 202
Launch site
Tanegashima Space Center (TNSTA)
Object type
Payload
Rocket body
Debris
Shape & HBR
Box + 2 Pan, 0.8 m
Radar Cross Section
0.514 m², Medium (>0.1 m² and < 1m²)

Expand to show TLE details & history
Last TLE update: 9 hours ago

TLE from 9 hours ago
0 SDS-4
1 38339U 12025C   26263.57176933  .00000587  00000-0  92929-4 0  9991
2 38339  98.1373   0.1225 0006873   3.8351 356.2910 14.75949279770055
Epoch: 2026-09-20T13:43Z
TLE epoch observation values (Epoch: 2026-09-20T13:43:20.870Z)
Latitude
0.00005°
Longitude
154.8215°
Altitude
640.332 km
Speed
7.54 km/s
True Right ascension
00h 00m 29s
True Declination
0° 00' 00"
Sunlit
Object was in full shadow at epoch
Visualization orbit readout
Latitude
Unknown
Longitude
Unknown
Altitude
Unknown
Speed
Unknown
Apparent Right ascension
Unknown
Apparent Declination
Unknown
Sunlit
N/A
Visualization observer readout
Local Sidereal Time
15:47:14
Azimuth
Unknown
Elevation
Unknown
Doppler factor
Unknown
Orbital elements
Apogee altitude
644.02 km
Perigee altitude
634.374 km
Semi-major axis
7,017.334 km
Eccentricity
0.00069
Inclination
98.1373°
RAAN
0.1225°
Arg. of periapsis
3.8351°
True anomaly
356.2859°
Mean anomaly
356.291°
Eccentric anomaly
356.28845°
Mean motion
3.6922 °/min
Orbital period
97.5 mins
BSTAR
0.000092929
Loading maneuver chart data...
Computing Atmospheric mass density...
Loading historical data...
Loading historical data...
Loading historical data...
Loading historical data...
Loading historical data...
Loading historical data...
Loading historical data...

Documentation

Showing up to 5 results
|